CZ-4C DEB

Satellite information

Favourite Embed

Satellite Type and Status

DEBRISIN ORBIT

Key statistics

Satellite CZ-4C DEB at a glance.

Uptime

5390

Days in orbit

Revolutions

≈ 14.7

Per day

Orbit

SSO

Sun Synchronous Orbit

Inclination

98.0

Latest

Satellite identification and parameters

Extended collection of information and parameters for CZ-4C DEB.

Object identification

Identified? True

Debris? True

Object name: CZ-4C DEB

International designator: 2010-038D

Object number (NORAD): 37568

Object ID (CCSDS): 37568

Country: PEOPLES REPUBLIC OF CHINA (PRC)

Current information (Y/N): Y

RCS size: SMALL

Orbital parameters

Period: 97.917 minutes

Inclination: 97.9605 deg

SMA: 7037.177 km

Apoapsis: 752.745 km

Periapsis: 565.339 km

RAAN: 228.7185 deg

Eccentricy: 0.0133154

Argument of periapsis: 117.688 deg

Mean anomaly: 243.7911 deg

Mean motion: 14.70635475 rev/day

Mean motion (dot): 0.00008478 rev/day2

B* drag term: 0.0012206 1/REarth

Two-line elements (TLE)

Creation date: May 11, 2025, 10:21 p.m.

Reference frame: TEME

Reference center: EARTH

Epoch: May 11, 2025, 5:34 a.m. UTC

TLE line 0: 0 CZ-4C DEB

TLE line 1: 1 37568U 10038D 25131.23239732 .00008478 00000-0 12206-2 0 9994

TLE line 2: 2 37568 97.9605 228.7185 0133154 117.6880 243.7911 14.70635475776580

Live tracking on map

Real-time ground track for satellite CZ-4C DEB.

In-orbit conjunctions

A list of the most updated potential collisions computed for object CZ-4C DEB.

Target Orbit TCA Probability of collision Miss distance Type
CZ-6A DEB LEO 2025-01-09 20:40:06 0.0004994517 93.0 (m) DEBRIS
FENGYUN 1C DEB SSO 2024-11-15 01:42:01 0.0001593878 664.0 (m) DEBRIS

Associated space launch

CZ-4C DEB was lifted into orbit during the mission ‘Long March 4C | Yaogan-10’, on board a Long March 4C space rocket.

The launch took place on Aug. 9, 2010, 10:49 p.m. from Launch Complex 9.

For more information about the launch, click the button.

Launch to space Long March 4C | Yaogan-10
Long March 4C | Yaogan-10

Agency: N/A

Status: Launch Successful

Launch date: Aug. 9, 2010, 10:49 p.m. UTC

Rocket: Long March 4C

Launch pad: Launch Complex 9

Location: Taiyuan Satellite Launch Center, People's Republic of China

...

Latest news about this satellite

There are no fresh news available about this satellite. Check back as we update our databases every day.


Newsletter sign-up

Weekly statistics, charts and insights to help you stay on top of the space industry.